Content
SEND FEEDBACK

Daily
Averages
Monthly
Summary
United States of America

BROOKLINE, MASSACHUSETTS


Home > North America > United States > Massachusetts
Elevation: 118 feet     Latitude: 42 24N     Longitude: 071 06W

WEATHER
 
SELECT A DAY
Number of Records: 202,493;   Date Range: 1/1/95 - 7/23/14
 
SHARE

PRINT THIS DATA

[ ← Previous Day ]
WEATHER ALMANAC - FEBRUARY 13, 2013
[ Next Day → ]
[ °C ]   °F
Weather ElementAverageHighLow
Temperature35.7 °F41 °F (2:54 pm)30.9 °F (6:54 am)
Dewpoint23.5 °F28.9 °F (10:54 pm)19.9 °F (6:54 am)
Humidity62 %82 % (10:54 pm)47 % (2:54 pm)
Barometer29.80 in29.87 in (6:54 am)29.70 in (11:54 pm)
Wind Speed6.9 mph12.7 mph (3:54 am)
Wind Gust20.7 mph (3:54 am)
Weather ElementAverage
Visibility10 mi
Wind DirectionSSW (207 °)

Weather ElementTotal
Precipitation---
Heating Degree Days29.1 (Base 65)
Averaged from 23 records on February 13, 2013
WEATHER CONDITIONS BREAKOUT
WIND DIRECTION BREAKOUT
WEATHER BY HOUR - FEBRUARY 13, 2013
[ °C ]   °F
Local TimeTemperatureDewpointHumidityBarometerVisibilityWind DirectionWind SpeedGust SpeedPrecipitationEventsConditions
1:54 AM34.0 °F23.0 °F64 %29.83 in10.0 miWest (280°)10.4 mphPartly Cloudy
2:54 AM34.0 °F21.0 °F59 %29.83 in10.0 miWest (270°)11.5 mphClear
3:54 AM34.0 °F21.0 °F59 %29.85 in10.0 miWest (260°)12.7 mph20.7 mphPartly Cloudy
4:54 AM34.0 °F21.0 °F59 %29.86 in10.0 miWest (270°)12.7 mph19.6 mphPartly Cloudy
5:54 AM33.1 °F21.0 °F61 %29.86 in10.0 miWest (270°)8.1 mphPartly Cloudy
6:54 AM30.9 °F19.9 °F64 %29.87 in10.0 miWSW (240°)8.1 mphPartly Cloudy
7:54 AM34.0 °F21.9 °F61 %29.87 in10.0 miWest (280°)8.1 mphClear
8:54 AM36.0 °F21.9 °F57 %29.87 in10.0 miWest (270°)8.1 mphClear
9:54 AM37.0 °F21.9 °F54 %29.86 in10.0 miWNW (300°)6.9 mph17.3 mphPartly Cloudy
10:54 AM37.9 °F21.9 °F53 %29.84 in10.0 miWest (270°)5.8 mphPartly Cloudy
11:54 AM37.9 °F21.9 °F53 %29.83 in10.0 miWSW (250°)5.8 mphPartly Cloudy
12:54 PM39.9 °F23.0 °F51 %29.81 in10.0 miVariable5.8 mphScattered Clouds
1:54 PM39.9 °F23.0 °F51 %29.80 in10.0 miWest (270°)6.9 mphMostly Cloudy
2:54 PM41.0 °F21.9 °F47 %29.78 in10.0 miWest (270°)5.8 mphScattered Clouds
3:54 PM41.0 °F21.9 °F47 %29.76 in10.0 miWNW (290°)3.5 mphScattered Clouds
4:54 PM36.0 °F25.0 °F64 %29.77 in10.0 miSE (130°)8.1 mphScattered Clouds
5:54 PM35.1 °F26.1 °F70 %29.76 in10.0 miSE (130°)8.1 mphMostly Cloudy
6:54 PM35.1 °F26.1 °F70 %29.75 in10.0 miSSE (150°)6.9 mphOvercast
7:54 PM34.0 °F26.1 °F73 %29.75 in10.0 miSSE (150°)3.5 mphOvercast
8:54 PM33.1 °F26.1 °F75 %29.75 in10.0 miNE (40°)3.5 mphOvercast
9:54 PM34.0 °F27.0 °F75 %29.73 in10.0 miCalmOvercast
10:54 PM34.0 °F28.9 °F82 %29.72 in10.0 miNorth (10°)4.6 mphOvercast
11:54 PM35.1 °F28.0 °F76 %29.70 in10.0 miNorth (360°)3.5 mphOvercast
Hourly data recorded from KBOS, located miles away from Brookline, Massachusetts







STORIES FROM OUR PARTNERS